Location: Buchloe
(48.0161°N, 10.7316°E)
Time: 07:29:54
(UTC+02:00)

ISS - Pass Details

Date: 20 May 2018
Orbit: 402 x 407 km, 51.6° (Epoch: 24 May)

Event Time Altitude Azimuth Distance (km) Brightness Sun altitude
Exits shadow 00:06:20 18° 68° (ENE) 1,055 -1.7 -20.4°
Drops below altitude 10° 00:07:20 10° 68° (ENE) 1,457 -1.0 -20.5°
Sets 00:09:25 0° 68° (ENE) 2,318 0.1 -20.6°
